AirNav   Air Wisconsin pilot careers
 
 344 users online  

CO80 Fowler Airport
Fowler, Colorado, USA

GOING TO FOWLER?


FAA INFORMATION EFFECTIVE 06 DECEMBER 2018

Location

FAA Identifier: CO80
Lat/Long: 38-04-21.0220N / 104-02-44.8610W
38-04.350367N / 104-02.747683W
38.0725061 / -104.0457947
(estimated)
Elevation: 4428 ft. / 1350 m (estimated)
Variation: 11E (1985)
From city: 3 miles S of FOWLER, CO
Time zone: UTC -7 (UTC -6 during Daylight Saving Time)
Zip code: 81039

Airport Operations

Airport use: Private use. Permission required prior to landing
Activation date: 05/1962
Control tower: no
ARTCC: DENVER CENTER
FSS: DENVER FLIGHT SERVICE STATION
Attendance: UNATNDD
Wind indicator: yes
Segmented circle: no

Nearby radio navigation aids

VOR radial/distance  VOR name  Freq  Var
PUBr118/22.5PUEBLO VORTAC116.7008E

Airport Services

Parking: tiedowns
Airframe service: NONE
Powerplant service: NONE
Bottled oxygen: NONE
Bulk oxygen: NONE

Runway Information

Runway 4/22

Dimensions: 3240 x 40 ft. / 988 x 12 m
Surface: asphalt
RUNWAY 4  RUNWAY 22
Gradient: 0.6%0.6%
Traffic pattern: leftleft
Obstructions: 4 ft. fence, marked, 17 ft. from runway, 4:1 slope to clear15 ft. road, 120 ft. from runway, 8:1 slope to clear

Runway 12/30

Dimensions: 2850 x 50 ft. / 869 x 15 m
Surface: dirt, in poor condition
RUNWAY 12  RUNWAY 30
Gradient: 1.1%1.1%
Traffic pattern: leftleft
Obstructions: none6 ft. fence

Airport Ownership and Management from official FAA records

Ownership: Privately-owned
Owner: FOWLER AIRFIELD ASSOC.
317 E GRANT ST
FOWLER, CO 81039
Phone 719-263-5300
Manager: MARK MC CUISTION
3401 RD KK 75
FOWLER, CO 81039
Phone 719-263-5156

Airport Operational Statistics

Aircraft based on the field: 5
Single engine airplanes: 5
    
Aircraft operations: avg 54/week *
100% local general aviation
* for 12-month period ending 18 February 1991

Additional Remarks

RY 12/30 VERY SOFT ALL TIMES.
RY 12/30 ANIMAL BURROWS ON & INVOF RY; RY NOT MAINTAINED.

Instrument Procedures

There are no published instrument procedures at CO80.

Some nearby airports with instrument procedures:

KPUB - Pueblo Memorial Airport (25 nm NW)
KLHX - La Junta Municipal Airport (25 nm E)
4V1 - Spanish Peaks Airfield (42 nm SW)
KTAD - Perry Stokes Airport (51 nm S)
KCOS - City of Colorado Springs Municipal Airport (54 nm NW)
 
Loc | Ops | Rwys | IFR | FBO | Links
Com | Nav | Svcs | Stats | Notes


 
Area around CO80 (Fowler Airport)
 
Road maps at: MapQuest Bing Google
 
Aerial photo
WARNING: Photo may not be current or correct
Aerial photo of CO80 (Fowler Airport)
Photo taken 18-Nov-2007
looking north

Do you have a better or more recent aerial photo of Fowler Airport that you would like to share? If so, please send us your photo.

 
Sectional chart

 
Airport distance calculator
Flying to Fowler Airport? Find the distance to fly.

From to CO80

Sunrise and sunset
Times for 17-Dec-2018
 Local
(UTC-7)
 Zulu
(UTC)
Morning civil twilight06:3813:38
Sunrise07:0814:08
Sunset16:3723:37
Evening civil twilight17:0700:07

Current date and time
Zulu (UTC)  17-Dec-2018 10:00:09
Local (UTC-7)  17-Dec-2018 03:00:09
 
METAR
KPUB 
25nm NW 
170953Z AUTO 00000KT 10SM CLR M07/M11 A3020 RMK AO2 SLP227 T10671106
KLHX 
25nm E 
170953Z AUTO 24003KT 10SM CLR M03/M08 A3020 RMK AO2 SLP216 T10281083
KFCS 
49nm NW 
170858Z AUTO 01011KT 10SM CLR M02/M11 A3018 RMK AO2 SLP235 T10221107 57021 $
TAF
KPUB 
25nm NW 
170522Z 1706/1806 36009KT P6SM SKC FM171000 VRB05KT P6SM SCT250 FM171800 26009KT P6SM BKN200 FM172200 26009KT P6SM BKN150 FM180300 34007KT P6SM BKN100
NOTAMs
Click for the latest NOTAMs
NOTAMs are issued by the DoD/FAA and will open in a separate window not controlled by AirNav.

 

 
 

Would you like to see your business listed on this page?

 If your business provides an interesting product or service to pilots, flight crews, aircraft, or users of the Fowler Airport, you should consider listing it here.  To start the listing process, click on the button below
 
Add a business
 

Other Pages about Fowler Airport

www.fowlerairport.com
 
Update a link
 
Copyright © AirNav, LLC. All rights reserved. Privacy Policy  Contact